Probability
0 0 0 0 0 0 0 0 0 0 0 0 0 0 0 0 0 0 0 0 0 0 0 0 0 0 0 0 0 0 0 0 0 0 0 0 0 0 0 0 0 0 0 0 0 0 0 0 0
0 0 0 0 0 0 0 0 0 0 0 0 0 0 0 0 0 0 0 0 0 0 0 0 0 0 0 0 0 0 0 0 0 0 0 0 0 0 0 0 0 0 0 0 0 0 0 0 0
0 0 0 0 0 0 0 0 0 0 0 0 0 0 0 0 0 0 0 0 0 0 0 0 0 0 0 0 0 0 0 0 0 0 0 0 0 0 0 0 0 0 0 0 0 0 0 0 0
0 0 0 0 0 0 0 0 0 0 0 0 0 0 0 0 0 0 0 0 0 0 0 0 0 0 0 0 0 0 0 0 0 0 0 0 0 0 0 0 0 0 0 0 0 0 0 0 0
0 0 0 0 0 0 0 0 0 0 0 0 0 0 0 0 0 0 0 0 0 0 0 0 0 0 0 0 0 0 0 0 0 0 0 0 0 0 0 0 0 0 0 0 0 0 0 0 0
0 0 0 0 0 0 0 0 0 0 0 0 0 0 0 0 0 0 0 0 0 0 0 0 0 0 0 0 0 0 0 0 0 0 0 0 0 0 0 0 0 0 0 0 0 0 0 0 0
0 0 0 0 0 0 0 0 0 0 0 0 0 0 0 0 0 0 0 0 0 0 0 0 0 0 0 0 0 0 0 0 0 0 0 0 0 0 0 0 0 0 0 0 0 0 0 0 0
0 0 0 0 0 0 0 0 0 0 0 0 0 0 0 0 0 0 0 0 0 0 0 0 0 0 0 0 0 0 0 0 0 0 0 0 0 0 0 0 0 0 0 0 0 0 0 0 0
0 0 0 0 0 0 0 0 0 0 0 0 0 0 0 0 0 0 0 0 0 0 0 0 0 0 0 0 0 0 0 0 0 0 0 0 0 0 0 0 0 0 0 0 0 0 0 0 0
0 0 0 0 0 0 0 0 0 0 0 0 0 0 0 0 0 0 0 0 0 0 0 0 0 0 0 0 0 0 0 0 0 0 0 0 0 0 0 0 0 0 0 0 0 0 0 0 0
0 0 0 0 0 0 0 0 0 0 0 0 0 0 0 0 0 0 0 0 0 0 0 0 0 0 0 0 0 0 0 0 0 0 0 0 0 0 0 0 0 0 0 0 0 0 0 0 0
0 0 0 0 0 0 0 0 0 0 0 0 0 0 0 0 0 1 0 0 0 0 0 0 0 0 0 0 0 0 0 0 0 0 0 0 0 0 0 0 0 0 0 0 0 0 0 0 0
0 0 0 0 0 0 0 0 0 0 0 0 0 0 0 0 0 0 0 0 0 0 0 0 0 0 0 0 0 0 0 0 0 0 0 0 0 0 0 0 0 0 0 0 0 0 0 0 0
0 0 0 0 0 0 0 0 0 0 0 0 0 0 0 0 0 0 0 0 0 0 0 0 0 0 0 0 0 0 0 0 0 0 0 0 0 0 0 0 0 0 0 0 0 0 0 0 0
0 0 0 0 0 0 0 0 0 0 0 0 0 0 0 0 0 0 0 0 0 0 0 0 0 0 0 0 0 0 0 0 0 0 0 0 0 0 0 0 0 0 0 0 0 0 0 0 0
0 0 0 0 0 0 0 0 0 0 0 0 0 0 0 0 0 0 0 0 0 0 0 0 0 0 0 1 1 1 1 1 0 0 0 0 0 0 0 0 0 0 0 0 0 0 0 0 0
0 0 0 0 0 0 0 0 0 0 0 0 0 0 0 0 0 0 0 1 1 0 0 0 1 2 4 6 6 5 4 3 1 1 0 0 0 0 0 0 0 0 0 0 0 0 0 0 0
0 0 0 0 0 0 0 0 0 0 0 0 0 0 0 0 0 1 2 3 3 2 1 1 4 10 19 24 23 19 15 9 5 2 1 0 0 0 0 0 0 0 0 0 0 0 0 0 0
0 0 0 0 0 0 0 0 0 0 0 0 0 0 0 1 2 4 7 9 10 7 4 5 13 27 44 54 52 44 35 25 15 8 3 1 0 0 0 0 1 0 0 0 0 0 0 0 0
0 0 0 0 0 0 0 0 0 0 0 0 0 0 1 2 4 9 14 18 20 18 13 12 24 44 65 76 74 64 52 41 28 17 7 2 0 0 0 0 1 1 1 0 0 0 0 0 0
0 0 0 0 0 0 0 0 0 0 0 0 0 0 1 2 4 9 17 25 31 32 29 26 34 54 73 81 79 70 57 46 36 25 14 6 2 0 1 1 2 2 1 0 0 0 0 0 1
0 0 0 0 0 0 0 0 0 0 0 0 0 0 1 2 4 7 16 27 37 44 46 43 47 62 76 81 78 69 55 42 33 26 17 10 4 2 2 3 4 3 1 0 0 0 0 1 2
0 0 0 0 0 0 0 0 0 0 0 0 0 0 0 2 4 6 13 25 37 47 53 55 57 66 75 77 73 64 49 35 26 20 15 11 7 3 2 3 2 1 0 0 0 0 0 0 1
0 0 0 0 0 0 0 0 0 0 0 0 0 0 0 1 3 5 9 18 30 41 48 52 55 62 65 65 61 52 38 25 18 15 12 10 7 3 1 1 1 0 0 0 1 1 0 0 0
0 0 0 0 0 0 0 0 0 0 0 0 0 1 1 1 1 2 4 10 20 29 34 38 44 49 49 46 42 34 24 15 11 10 7 6 6 3 0 0 0 0 0 1 1 1 0 0 0
0 0 0 0 0 0 0 0 0 0 0 0 0 1 1 0 0 0 1 4 8 14 19 24 29 33 33 29 24 19 13 8 6 5 4 4 5 2 0 0 0 0 0 1 1 1 0 0 0
0 0 0 0 0 0 0 0 0 0 0 0 0 0 0 0 0 0 0 1 2 3 6 10 15 18 18 16 13 11 8 5 3 3 4 5 4 1 0 0 0 0 0 0 0 0 0 0 0
0 0 0 0 0 0 0 0 0 0 0 0 0 0 0 0 0 0 0 0 0 0 1 3 5 8 8 8 7 7 6 4 2 1 3 4 2 1 0 0 0 0 0 0 0 0 0 0 0
0 0 0 0 0 0 0 0 0 0 0 0 0 0 0 0 0 0 0 0 0 0 0 0 1 2 3 3 2 2 3 2 1 1 1 1 1 0 0 0 0 0 0 0 1 0 0 0 0
0 0 0 0 0 0 0 0 0 0 0 0 0 0 0 0 0 0 0 0 0 0 0 0 0 0 0 0 0 0 1 1 2 2 1 0 0 0 0 0 0 0 0 0 1 0 0 0 0
Wind_Speed
4 2 3 3 3 4 9 6 4 4 5 6 5 3 4 4 4 5 7 12 14 15 15 15 14 14 14 14 13 13 13 12 12 12 11 11 10 9 9 8 8 8 7 7 6 6 6 6 6
3 2 4 4 1 7 9 5 5 5 5 4 3 3 3 5 6 7 9 11 14 15 14 14 15 14 14 14 13 13 13 12 12 12 11 10 9 9 8 8 8 8 8 7 7 6 6 6 6
3 4 4 1 4 7 8 5 5 5 3 1 3 4 4 5 5 7 10 14 14 13 13 14 14 14 13 13 13 13 13 12 12 11 11 10 9 8 8 8 8 8 8 8 7 7 6 6 5
3 4 3 2 8 6 4 4 2 4 2 2 2 4 5 5 4 8 13 14 14 13 12 14 14 13 13 13 12 12 12 12 12 11 10 10 9 8 8 8 8 8 8 8 7 7 7 6 5
3 3 3 5 6 4 2 2 1 1 2 3 2 4 6 5 5 11 13 13 13 13 12 14 14 13 13 12 12 12 12 12 12 11 10 10 9 8 7 7 7 7 8 8 7 7 7 6 6
3 3 3 5 6 3 3 1 2 1 1 1 1 3 6 6 8 12 13 12 12 13 12 14 14 13 13 12 12 12 12 12 12 11 10 10 9 8 7 7 7 7 7 7 6 6 6 6 6
3 1 3 5 4 4 3 1 1 1 1 2 1 2 6 8 9 11 12 11 11 12 12 11 14 13 13 12 12 12 12 12 11 11 11 10 9 8 7 7 6 6 6 6 6 5 5 5 6
3 2 4 4 4 4 3 0 1 2 2 3 1 2 4 10 11 11 11 10 11 11 11 11 11 12 12 13 13 12 11 11 11 11 11 10 9 8 7 8 7 6 6 6 5 5 5 6 6
4 4 4 3 2 3 2 1 2 0 2 3 1 3 4 13 13 12 10 10 10 10 10 10 10 10 9 10 12 12 11 11 11 11 11 10 9 9 9 7 7 6 6 6 5 5 5 5 8
3 2 3 3 2 2 2 2 1 2 2 2 3 3 8 13 14 13 13 13 13 12 12 10 10 10 10 8 9 8 9 10 10 9 11 9 6 5 4 11 6 6 6 6 5 5 5 6 6
1 1 3 2 2 2 1 1 0 3 1 3 2 5 11 14 14 14 13 12 12 12 11 11 11 10 9 7 7 6 5 6 8 9 9 7 6 5 5 6 8 8 8 7 7 7 4 3 3
1 2 1 1 2 2 2 1 0 2 6 8 6 4 12 15 16 14 13 12 11 11 12 11 11 11 11 9 7 6 6 6 6 7 9 7 5 5 5 4 5 5 4 4 4 2 4 3 4
1 1 1 2 3 3 3 1 1 5 9 8 4 4 11 14 14 14 12 12 12 12 12 12 12 11 11 9 6 7 6 6 7 6 7 8 6 6 5 5 4 5 4 5 4 4 4 3 3
3 3 3 3 2 1 2 1 1 7 10 7 4 1 6 10 11 11 12 12 12 12 12 12 12 12 11 9 9 8 7 6 6 7 8 9 7 6 5 6 5 5 5 4 4 4 4 3 2
3 5 4 1 1 1 3 2 5 9 8 7 6 4 3 4 7 10 10 11 11 11 12 12 12 12 12 11 10 7 7 8 7 7 9 9 8 7 6 6 6 6 6 6 4 4 3 3 3
4 5 5 1 2 1 6 3 7 9 8 8 8 7 5 4 6 7 9 10 11 11 12 12 10 13 13 11 10 8 8 8 7 7 8 10 10 9 7 6 6 7 6 5 4 4 4 4 4
4 6 5 2 1 3 4 2 6 8 8 8 8 8 7 7 7 7 8 10 11 12 13 13 14 14 13 12 10 9 8 8 7 7 8 9 10 10 8 6 6 7 6 5 5 5 4 4 4
5 6 6 5 2 5 5 2 3 6 8 9 9 9 9 10 10 9 9 10 11 13 14 15 15 15 13 10 9 8 7 7 7 7 8 10 9 10 8 6 8 7 6 5 5 5 4 3 4
6 8 9 6 4 6 6 4 1 4 8 10 11 12 13 13 12 11 10 9 9 11 14 15 15 15 12 10 9 8 7 6 6 6 9 10 10 10 9 6 7 6 6 7 7 6 6 5 5
6 9 9 6 3 7 8 5 2 4 7 10 11 13 14 16 16 14 12 10 9 9 12 14 15 14 13 9 7 5 5 4 3 4 7 9 10 9 8 9 7 7 6 7 7 6 5 5 5
6 7 9 10 8 7 9 9 6 3 4 9 11 13 14 15 16 16 15 12 9 8 9 9 11 11 11 11 7 5 4 3 3 3 5 7 9 9 9 9 8 8 8 7 8 8 8 6 7
7 8 11 11 11 9 7 10 3 2 4 11 14 15 15 16 16 15 15 14 11 8 6 6 7 9 10 10 10 10 6 4 3 2 2 5 7 8 8 9 9 8 7 8 9 9 8 8 6
9 11 12 12 13 13 10 11 2 3 8 13 15 16 16 16 16 15 14 13 11 8 5 2 2 5 8 9 10 9 7 4 2 1 2 4 5 6 7 8 8 8 8 9 10 10 10 8 7
11 11 10 9 9 12 10 10 1 7 11 15 16 16 17 16 15 13 12 11 10 9 7 5 5 6 7 8 8 9 10 8 5 3 3 3 3 5 7 8 8 9 8 9 9 9 11 9 9
11 10 5 5 5 5 4 3 6 9 11 13 15 16 16 15 13 12 12 11 11 10 9 6 7 7 7 8 8 8 8 8 7 5 4 5 4 4 6 7 8 7 8 8 8 8 9 11 11
9 8 6 6 6 5 3 1 6 9 11 13 14 14 14 14 12 11 10 9 9 10 10 8 7 7 7 7 6 6 6 4 4 5 5 5 4 4 6 7 7 7 7 7 7 7 8 8 9
8 7 6 7 6 5 2 3 3 13 16 17 17 17 16 14 12 10 9 8 9 9 9 8 7 6 5 5 4 4 5 5 5 5 5 4 4 4 6 6 7 6 6 7 6 5 7 7 7
7 6 4 4 5 4 2 4 8 17 19 19 18 17 16 13 11 9 8 8 8 8 8 8 7 6 5 4 3 2 3 4 4 4 5 5 5 5 6 6 6 6 6 6 6 5 5 6 5
9 6 5 3 3 5 3 4 8 13 15 16 16 15 14 12 10 9 8 8 7 8 9 8 7 7 6 4 3 1 1 2 3 3 3 4 4 5 6 6 6 6 6 6 6 6 6 6 6
7 8 7 4 4 4 2 3 7 10 12 13 14 14 13 12 11 10 9 9 9 10 9 9 8 7 6 4 3 1 1 1 2 3 4 4 5 5 5 6 6 6 6 6 6 6 6 6 6
Wind_Direction
244 233 225 238 218 90 73 73 67 71 63 61 54 38 27 21 355 50 110 150 143 147 146 149 150 149 148 147 146 145 143 141 139 136 132 129 126 122 117 110 106 102 99 98 101 107 111 110 109
293 241 240 247 110 88 80 73 70 58 82 89 74 47 53 65 49 94 136 147 149 149 151 150 150 152 150 150 150 148 146 145 143 141 137 134 131 127 121 113 108 103 98 95 93 97 102 105 108
241 250 269 237 69 68 76 65 73 92 91 15 59 43 33 54 94 124 137 150 153 151 153 143 154 154 154 153 153 151 150 149 149 146 144 139 136 130 124 117 109 101 95 91 87 88 91 97 105
246 235 238 122 86 68 48 68 104 132 109 43 32 77 77 65 96 121 138 154 153 154 155 147 158 156 156 156 156 154 154 155 154 152 149 144 140 135 128 120 112 102 95 89 82 83 84 86 94
249 258 170 116 94 81 58 45 148 146 46 49 29 67 94 92 105 132 148 157 158 159 158 153 161 160 160 159 159 159 159 160 159 158 155 151 147 140 133 123 114 105 97 89 83 82 81 79 81
251 243 163 118 101 92 90 119 190 263 44 100 51 71 93 118 141 149 154 164 163 162 163 157 162 166 165 164 164 164 164 165 165 164 161 158 153 146 139 129 118 108 99 91 86 83 81 79 81
288 240 141 128 126 111 65 24 253 336 359 67 37 67 115 142 150 157 160 166 166 166 171 168 167 171 172 171 170 170 170 171 171 169 166 162 158 152 146 137 127 116 107 98 92 88 83 83 89
311 232 158 153 145 102 58 147 10 313 39 85 231 17 127 151 155 162 163 168 171 174 177 178 174 177 176 176 177 177 176 176 173 171 168 163 161 160 154 160 135 127 117 104 97 96 90 91 96
278 238 177 147 151 100 64 158 105 102 129 150 169 17 100 141 157 166 169 176 178 182 183 185 181 184 183 180 171 180 181 180 177 174 171 179 183 171 174 134 130 137 124 112 106 105 102 121 116
275 241 98 64 41 58 50 21 98 200 191 180 159 132 143 157 171 179 182 185 185 188 190 188 191 186 188 185 176 186 185 181 193 181 176 191 183 167 152 120 147 142 132 132 117 127 176 212 146
308 22 87 87 32 349 360 44 52 284 325 350 296 182 172 178 186 192 194 192 190 191 190 195 193 192 191 188 188 185 185 184 196 187 177 186 178 164 171 162 164 166 174 163 149 188 173 162 113
296 78 46 44 16 321 338 343 3 351 353 345 316 220 186 193 196 200 200 197 193 194 193 197 198 193 197 195 192 194 188 187 190 191 185 180 186 188 171 185 167 170 173 156 174 155 141 151 155
269 60 32 345 311 307 301 322 16 33 355 339 332 211 199 204 206 205 206 203 202 199 198 201 200 202 199 199 197 201 199 194 190 188 193 186 185 191 176 182 175 186 165 173 177 181 153 167 143
350 311 305 311 309 331 320 43 75 16 353 360 6 242 218 218 219 214 210 213 212 208 204 201 204 205 204 199 200 202 197 197 200 187 201 193 189 195 182 187 178 184 182 176 187 182 172 180 154
291 279 260 258 314 13 283 165 49 5 354 10 13 12 310 256 240 237 231 227 225 220 214 206 206 206 207 206 205 203 201 196 200 193 203 198 193 196 189 194 181 185 185 183 193 175 197 180 167
257 255 251 115 350 346 282 251 47 13 11 17 10 9 349 318 280 263 257 250 241 233 226 214 206 211 208 207 203 204 205 201 200 197 204 204 197 200 192 196 193 190 186 191 184 198 199 178 189
236 266 278 268 87 325 299 300 49 26 22 23 14 3 354 344 331 315 294 273 258 243 234 222 212 212 209 204 201 206 205 202 206 202 202 209 204 201 195 199 201 191 192 198 199 198 210 185 190
301 293 285 287 351 311 287 280 52 38 29 23 14 5 357 349 341 328 311 296 276 253 238 228 218 214 204 198 201 198 206 203 209 209 210 212 210 209 201 200 208 196 197 202 207 198 210 204 198
302 288 286 298 330 295 281 275 59 51 35 22 13 4 358 350 344 340 326 304 284 263 245 232 224 213 201 193 194 192 195 200 209 218 220 216 216 212 208 207 210 201 206 207 214 203 202 207 204
292 288 290 292 316 291 281 271 147 71 44 25 12 4 357 349 346 346 339 324 299 276 253 240 225 213 201 193 184 177 173 187 204 224 236 228 226 220 217 211 210 208 212 213 218 210 209 206 205
307 314 312 306 301 259 273 251 185 119 51 27 16 7 360 353 346 345 341 335 318 294 270 247 229 207 193 177 161 146 140 142 175 210 232 238 235 227 223 223 218 215 212 213 212 208 210 210 213
313 346 313 296 282 270 259 275 200 74 29 15 8 3 358 353 347 346 344 341 336 322 301 260 218 199 183 169 163 160 163 168 188 218 243 248 240 233 227 228 223 218 216 219 217 213 215 214 212
332 318 298 285 274 271 254 261 245 53 8 1 358 356 353 351 348 351 353 350 354 353 351 344 158 161 162 165 166 158 151 142 139 201 257 256 244 238 231 227 223 220 220 225 222 214 213 213 214
325 298 273 253 260 257 263 259 303 34 2 351 350 351 352 350 350 356 2 6 12 22 28 50 93 117 136 144 146 146 144 144 152 190 231 251 237 232 229 226 227 223 222 223 222 218 214 217 219
349 331 298 266 247 273 328 286 65 29 7 354 348 349 351 352 354 358 6 12 19 29 37 57 83 95 110 125 131 138 146 155 165 184 213 228 229 222 225 223 225 224 222 221 218 217 219 219 221
352 348 337 315 315 319 321 27 82 21 4 356 354 353 353 356 357 0 9 15 22 33 37 49 70 87 97 109 122 139 154 167 174 191 208 214 216 216 212 218 219 215 214 214 213 220 220 224 224
349 5 341 299 294 292 335 68 66 7 1 359 357 356 355 352 353 1 12 22 25 35 40 45 56 69 83 99 117 141 161 172 177 189 199 198 200 200 198 205 201 197 201 207 204 214 216 223 225
9 345 325 319 318 307 348 36 3 354 350 349 352 350 350 349 353 5 21 27 27 33 37 41 47 55 68 72 90 126 151 162 173 186 191 190 187 188 187 191 185 182 183 190 194 206 208 216 220
9 8 344 308 311 318 342 46 13 347 342 343 346 348 351 358 3 15 25 27 25 24 24 27 38 44 48 52 56 74 117 161 177 181 187 188 184 187 187 181 179 175 175 179 181 194 193 207 213
15 6 346 340 357 337 341 40 9 349 348 351 352 356 1 8 14 24 30 33 34 27 19 20 29 31 27 24 21 21 20 190 199 182 180 185 183 186 182 175 173 167 171 176 180 186 191 202 208